| time (UTC) | temp F | wind direction | speed MPH | gust MPH | rain 1hr in | rain 24hr in | rain mn in | humidity % | barometer mb |
| 20260507060025 | 42 | 360 | 0.0 | 4.0 | 0.00 | 0.40 | 0.25 | 90 | 1012.6 |
| 20260507054523 | 43 | 360 | 1.0 | 4.0 | 0.00 | 0.40 | 0.25 | 90 | 1012.7 |
| 20260507053022 | 43 | 360 | 2.0 | 6.0 | 0.00 | 0.50 | 0.25 | 91 | 1012.7 |
| 20260507051530 | 43 | 360 | 2.0 | 5.0 | 0.00 | 0.50 | 0.25 | 91 | 1012.9 |
| 20260507050027 | 43 | 360 | 3.0 | 5.0 | 0.00 | 0.50 | 0.25 | 92 | 1013.1 |
| 20260507044522 | 43 | 360 | 2.0 | 4.0 | 0.00 | 0.50 | 0.25 | 91 | 1013.0 |
| 20260507043009 | 43 | 360 | 1.0 | 3.0 | 0.00 | 0.55 | 0.25 | 91 | 1013.0 |
| 20260507041502 | 43 | 360 | 0.0 | 3.0 | 0.00 | 0.55 | 0.25 | 91 | 1012.9 |
| 20260507040045 | 43 | 360 | 1.0 | 3.0 | 0.00 | 0.55 | 0.25 | 92 | 1012.9 |
| 20260507034542 | 43 | 360 | 1.0 | 4.0 | 0.00 | 0.55 | 0.25 | 93 | 1012.8 |
| 20260507033036 | 43 | 360 | 3.0 | 6.0 | 0.00 | 0.56 | 0.25 | 94 | 1012.6 |
| 20260507031522 | 43 | 360 | 2.0 | 5.0 | 0.00 | 0.56 | 0.25 | 95 | 1012.6 |
| 20260507030004 | 43 | 360 | 2.0 | 6.0 | 0.00 | 0.56 | 0.25 | 95 | 1012.6 |
| 20260507024504 | 43 | 360 | 2.0 | 6.0 | 0.00 | 0.56 | 0.25 | 95 | 1012.5 |
| 20260507023046 | 43 | 360 | 2.0 | 5.0 | 0.00 | 0.57 | 0.25 | 96 | 1012.6 |
| 20260507021545 | 43 | 360 | 2.0 | 5.0 | 0.00 | 0.57 | 0.25 | 96 | 1012.5 |
| 20260507020027 | 43 | 360 | 3.0 | 6.0 | 0.00 | 0.57 | 0.25 | 95 | 1012.6 |
| 20260507014526 | 44 | 360 | 5.0 | 8.0 | 0.00 | 0.57 | 0.25 | 96 | 1012.5 |
| 20260507013008 | 44 | 360 | 4.0 | 8.0 | 0.00 | 0.60 | 0.25 | 96 | 1012.4 |
| 20260507011507 | 44 | 360 | 4.0 | 8.0 | 0.00 | 0.60 | 0.25 | 95 | 1012.5 |
| 20260507010056 | 44 | 360 | 3.0 | 6.0 | 0.00 | 0.60 | 0.25 | 95 | 1012.2 |
| 20260507004554 | 43 | 360 | 4.0 | 7.0 | 0.01 | 0.60 | 0.25 | 95 | 1012.1 |
| 20260507003030 | 43 | 360 | 1.0 | 6.0 | 0.01 | 0.64 | 0.25 | 95 | 1012.1 |
| 20260507001528 | 43 | 360 | 3.0 | 5.0 | 0.02 | 0.64 | 0.25 | 94 | 1011.9 |
| 20260507000012 | 43 | 360 | 2.0 | 4.0 | 0.04 | 0.64 | 0.25 | 93 | 1011.7 |
| 20260506234509 | 43 | 360 | 3.0 | 7.0 | 0.03 | 0.63 | 0.24 | 92 | 1011.7 |
| 20260506233106 | 45 | 360 | 3.0 | 11.0 | 0.03 | 0.68 | 0.24 | 92 | 1011.6 |
| 20260506231547 | 46 | 360 | 0.0 | 3.0 | 0.02 | 0.67 | 0.23 | 91 | 1011.2 |
| 20260506230043 | 46 | 360 | 0.0 | 2.0 | 0.00 | 0.65 | 0.21 | 90 | 1010.9 |
| 20260506224523 | 47 | 360 | 1.0 | 4.0 | 0.00 | 0.65 | 0.21 | 90 | 1010.5 |
| 20260506223022 | 47 | 360 | 0.0 | 3.0 | 0.00 | 0.67 | 0.21 | 89 | 1010.4 |
| 20260506221508 | 47 | 360 | 2.0 | 7.0 | 0.00 | 0.67 | 0.21 | 89 | 1010.1 |
| 20260506220003 | 46 | 360 | 5.0 | 9.0 | 0.00 | 0.67 | 0.21 | 89 | 1010.1 |
| 20260506214551 | 46 | 360 | 6.0 | 8.0 | 0.00 | 0.67 | 0.21 | 89 | 1009.8 |
| 20260506213044 | 46 | 360 | 4.0 | 7.0 | 0.00 | 0.67 | 0.21 | 88 | 1009.9 |
| 20260506211528 | 46 | 360 | 3.0 | 7.0 | 0.00 | 0.67 | 0.21 | 89 | 1009.9 |
| 20260506210025 | 46 | 360 | 5.0 | 8.0 | 0.00 | 0.67 | 0.21 | 88 | 1009.9 |
| 20260506204508 | 46 | 360 | 4.0 | 7.0 | 0.00 | 0.67 | 0.21 | 88 | 1010.0 |
| 20260506203008 | 46 | 360 | 4.0 | 7.0 | 0.00 | 0.67 | 0.21 | 88 | 1010.1 |
| 20260506201548 | 46 | 78 | 5.0 | 7.0 | 0.00 | 0.67 | 0.21 | 88 | 1010.1 |
| 20260506200055 | 46 | 71 | 5.0 | 8.0 | 0.00 | 0.67 | 0.21 | 89 | 1009.9 |
| 20260506194529 | 45 | 62 | 6.0 | 8.0 | 0.00 | 0.67 | 0.21 | 89 | 1010.0 |
| 20260506193028 | 45 | 78 | 4.0 | 6.0 | 0.00 | 0.67 | 0.21 | 89 | 1010.0 |
| 20260506191511 | 45 | 360 | 4.0 | 7.0 | 0.00 | 0.67 | 0.21 | 88 | 1010.1 |
| 20260506190016 | 45 | 81 | 4.0 | 6.0 | 0.00 | 0.67 | 0.21 | 89 | 1010.2 |
| 20260506184558 | 45 | 77 | 4.0 | 7.0 | 0.00 | 0.67 | 0.21 | 89 | 1010.2 |
| 20260506183108 | 45 | 83 | 4.0 | 7.0 | 0.00 | 0.67 | 0.21 | 90 | 1010.1 |
| 20260506181601 | 45 | 91 | 2.0 | 4.0 | 0.00 | 0.67 | 0.21 | 92 | 1010.3 |
| 20260506180113 | 44 | 360 | 0.0 | 3.0 | 0.00 | 0.67 | 0.21 | 92 | 1010.4 |
| 20260506174553 | 45 | 360 | 1.0 | 5.0 | 0.00 | 0.67 | 0.21 | 93 | 1010.4 |
| 20260506173118 | 45 | 49 | 2.0 | 5.0 | 0.00 | 0.67 | 0.21 | 94 | 1010.0 |
| 20260506171549 | 45 | 3 | 1.0 | 5.0 | 0.00 | 0.67 | 0.21 | 94 | 1010.1 |
| 20260506170048 | 44 | 339 | 2.0 | 6.0 | 0.00 | 0.67 | 0.21 | 95 | 1010.0 |
| 20260506164530 | 44 | 66 | 3.0 | 6.0 | 0.00 | 0.67 | 0.21 | 96 | 1009.8 |
| 20260506163029 | 44 | 59 | 2.0 | 6.0 | 0.00 | 0.67 | 0.21 | 96 | 1009.7 |
| 20260506161512 | 44 | 48 | 1.0 | 8.0 | 0.00 | 0.67 | 0.21 | 96 | 1009.8 |
| 20260506160013 | 44 | 360 | 1.0 | 7.0 | 0.00 | 0.67 | 0.21 | 96 | 1009.7 |
| 20260506154555 | 44 | 45 | 1.0 | 6.0 | 0.00 | 0.67 | 0.21 | 97 | 1009.8 |
| 20260506153051 | 44 | 61 | 1.0 | 7.0 | 0.00 | 0.67 | 0.21 | 96 | 1009.7 |
| 20260506151634 | 44 | 41 | 3.0 | 7.0 | 0.00 | 0.67 | 0.21 | 97 | 1009.5 |
| 20260506150032 | 43 | 360 | 1.0 | 7.0 | 0.00 | 0.67 | 0.21 | 96 | 1009.6 |
| 20260506144519 | 43 | 360 | 1.0 | 6.0 | 0.01 | 0.67 | 0.21 | 96 | 1009.6 |
| 20260506143012 | 43 | 360 | 3.0 | 7.0 | 0.01 | 0.67 | 0.21 | 96 | 1009.3 |
| 20260506141553 | 43 | 52 | 4.0 | 8.0 | 0.02 | 0.67 | 0.21 | 96 | 1009.3 |
| 20260506140053 | 43 | 45 | 3.0 | 8.0 | 0.02 | 0.67 | 0.21 | 96 | 1009.0 |
| 20260506134534 | 43 | 360 | 3.0 | 8.0 | 0.02 | 0.66 | 0.20 | 96 | 1009.2 |
| 20260506133040 | 43 | 360 | 3.0 | 9.0 | 0.02 | 0.66 | 0.20 | 96 | 1009.1 |
| 20260506131513 | 44 | 360 | 2.0 | 9.0 | 0.02 | 0.65 | 0.19 | 97 | 1009.0 |
| 20260506130017 | 43 | 360 | 8.0 | 13.0 | 0.03 | 0.65 | 0.19 | 97 | 1008.9 |
| 20260506124555 | 44 | 360 | 8.0 | 13.0 | 0.03 | 0.64 | 0.18 | 97 | 1008.9 |
| 20260506123055 | 43 | 360 | 4.0 | 15.0 | 0.04 | 0.64 | 0.18 | 97 | 1008.7 |
| 20260506121536 | 43 | 360 | 3.0 | 10.0 | 0.03 | 0.63 | 0.17 | 97 | 1008.8 |
| 20260506120035 | 43 | 360 | 3.0 | 9.0 | 0.03 | 0.62 | 0.16 | 97 | 1008.9 |
| 20260506114522 | 43 | 360 | 3.0 | 10.0 | 0.03 | 0.61 | 0.15 | 97 | 1008.9 |
| 20260506113022 | 43 | 360 | 3.0 | 8.0 | 0.03 | 0.60 | 0.14 | 96 | 1008.9 |
| 20260506111520 | 44 | 360 | 4.0 | 13.0 | 0.05 | 0.60 | 0.14 | 97 | 1008.7 |
| 20260506110020 | 44 | 360 | 11.0 | 14.0 | 0.06 | 0.59 | 0.13 | 97 | 1008.5 |
| 20260506104517 | 44 | 360 | 5.0 | 14.0 | 0.06 | 0.57 | 0.12 | 97 | 1008.2 |
| 20260506103015 | 43 | 360 | 4.0 | 9.0 | 0.07 | 0.56 | 0.11 | 97 | 1008.7 |
| 20260506101515 | 43 | 360 | 5.0 | 9.0 | 0.05 | 0.55 | 0.09 | 97 | 1008.9 |
| 20260506100014 | 43 | 360 | 7.0 | 11.0 | 0.03 | 0.53 | 0.07 | 97 | 1008.7 |
| 20260506094611 | 43 | 360 | 3.0 | 11.0 | 0.03 | 0.52 | 0.06 | 97 | 1008.9 |
| 20260506093054 | 43 | 360 | 4.0 | 11.0 | 0.02 | 0.50 | 0.04 | 97 | 1008.8 |
| 20260506091536 | 43 | 360 | 5.0 | 11.0 | 0.02 | 0.50 | 0.04 | 96 | 1008.7 |
| 20260506090037 | 43 | 360 | 4.0 | 11.0 | 0.03 | 0.50 | 0.04 | 97 | 1008.6 |
| 20260506084531 | 44 | 360 | 6.0 | 12.0 | 0.03 | 0.49 | 0.03 | 96 | 1008.6 |
| 20260506083012 | 44 | 360 | 4.0 | 8.0 | 0.03 | 0.48 | 0.02 | 97 | 1008.8 |
| 20260506081553 | 45 | 360 | 4.0 | 9.0 | 0.04 | 0.48 | 0.02 | 96 | 1008.9 |
| 20260506080105 | 45 | 360 | 5.0 | 11.0 | 0.05 | 0.47 | 0.01 | 97 | 1008.4 |
| 20260506073029 | 45 | 360 | 3.0 | 11.0 | 0.06 | 0.47 | 0.45 | 96 | 1008.6 |
| 20260506071511 | 45 | 360 | 4.0 | 13.0 | 0.07 | 0.46 | 0.44 | 96 | 1008.6 |
| 20260506061553 | 45 | 360 | 2.0 | 7.0 | 0.10 | 0.39 | 0.37 | 96 | 1009.4 |